THOR ABLESTAR DEB

基本信息
目录编号:
335
目录名称:
THOR ABLESTAR DEB
国际标识:
1961-015DM
轨道中心:
EARTH
物体状态:
在轨
发射日期:
1961-06-29 UTC
轨道信息
数据来源: 国际轨道数据
星历时间: 2026-09-10T18:49:59+0800
半长轴: 7193.079km
偏心率: 0.0030828
轨道倾角: 66.838°
近地点辐角: 112.447°
升交点赤经: 270.368°
平近点角: 247.990°
近地点: 792.767km
远地点: 837.117km
周期: 101.189分钟
每日圈数: 14.23084
详细信息
发射场:
AFETR
轨道高度:
LEO
数据来源:
AOE Integration Group
参考系:
TEME
时间系统:
UTC
历元类型:
SGP4
2D轨道图
3D轨道图
轨道高度分析图
轨道倾角分析图
轨道综合分析图
查看轨道综合分析图